Submittal Forms
Current Contests
Recent Contests

Club Activity Tracker - Florida Contest Group (from list of calls managed by K4SBZ)

Recent postings for the selected club or group are listed below. Other than the call used, all calls listed are only those associated with the club or group. Click on a call to see the details of the posting.
Status Key: new=new posting, update=update prior posting, move=change club/group, delete=delete prior posting.

Sort by   for past

TimestampCallContestClassPowerOpTimeScoreStatus
2021-05-09 17:44:23W4MLBVolta RTTYMulti-OpHP24212,173,332update6411
 (AF4Z,W4EE,@W4MLB)
2021-05-09 16:54:27W3IKVolta RTTYSOAB-6HP4.751,998,945new6411
2021-05-09 15:08:32W4THIArQPSOMixedHP2.0741new6413
2021-05-09 14:55:49N6ARVolta RTTYSOABHP12.5288,039,290new6411
2021-05-09 14:53:08N6ARArQPSOMixedHP24,461new6413
2021-05-09 14:32:14KM4HIArQPSOMixedHP1:243,248new6413
2021-05-09 13:36:21N4UUCQ-MSOABCWHP540,120new6412
2021-05-09 12:54:53N8KH50SprngSprntSingle OpHP4858update6414
2021-05-09 12:52:22NE8PArQPSOMixedHP5.17,442new6413
2021-05-09 12:20:52NK4OArQPSOCWLP19new6413
 
2021-05-09 12:14:12K4RUMCQ-MSOABCWHP4.526,104new6412
2021-05-09 12:09:27NK4OCQ-MSOABCWLP35,796new6412
2021-05-09 11:55:25N4BPCQ-MSOABCWHP7.583,676new6412
2021-05-09 11:49:21K4RUMArQPSOCWHP1.25480new6413
2021-05-09 02:20:40AA4TIArQPSOMixedHP129,136new6413
2021-05-09 02:02:47WB4OMMVolta RTTYSOSB/20QRP24,214new6411
2021-05-09 02:00:29WB4OMMArQPSOCWQRP3418new6413
2021-05-09 00:16:24K4NMRArQPSOCWHP01:14700new6413
2021-05-07 21:14:42K4BAIKRC SSTSingle OpHP11,400new6410
2021-05-07 21:04:38K4RUMKRC SSTSingle OpHP11,064new6410
 
2021-05-07 21:01:36W2XYZKRC SSTSingle OpLP1368new6410
2021-05-07 03:12:44K4BAINCCC SprintSingle OpLP0:13374new6409
2021-05-07 03:06:30NK4ONCCC SprintSingle OpLP.5306new6409
2021-05-07 03:04:34WJ9BNCCC SprintSingle OpLP.51,260new6409
2021-05-07 03:02:35K8MRNCCC SprintSingle OpLP0.51,353new6409
2021-05-06 04:19:23N4FPCWopsTSingle OpLP13,762new6404
2021-05-06 04:09:59K4BAICWopsTSingle OpHP118,496new6404
2021-05-06 04:03:44WJ9BCWopsTSingle OpLP119,072new6404
2021-05-06 04:03:40W4SPRCWopsTSingle OpLP13,245new6404
2021-05-06 04:02:07AA4NPCWopsTSingle OpLP13,654new6404
 
2021-05-06 04:02:06W2XYZCWopsTSingle OpHP12,448new6404
2021-05-06 04:01:52N4BPCWopsTSingle OpHP119,321new6404
2021-05-06 03:38:06W4WFCWopsTSingle OpLP00:35625new6404
2021-05-06 03:31:09AA0OCWopsTSingle OpLP400new6404
2021-05-05 21:45:33N4GLCWopsTSingle OpLP12,025new6403
2021-05-05 20:30:30K8VACWopsTSingle OpLP1756new6403
2021-05-05 20:29:41K8VACWopsTSingle OpLP48MIN196new6402
2021-05-05 20:04:43WJ9BCWopsTSingle OpLP18,366new6403
2021-05-05 20:04:12K4LWCWopsTSingle OpLP1528new6403
2021-05-05 20:03:31N4FPCWopsTSingle OpQRP12,400new6403
 
2021-05-05 20:02:54W4SPRCWopsTSingle OpLP13,363new6403
2021-05-05 20:02:37W2XYZCWopsTSingle OpHP12,115new6403
2021-05-05 20:02:18K8MRCWopsTSingle OpLP0:13529new6403
2021-05-05 20:01:45K3SENCWopsTSingle OpHP13,969new6403
2021-05-05 20:01:42K5KGCWopsTSingle OpHP118,358new6403
2021-05-05 20:01:41N4BPCWopsTSingle OpHP121,904new6403
2021-05-05 20:01:22K4RUMCWopsTSingle OpHP16,720new6403
2021-05-05 20:01:00W4WFCWopsTSingle OpLP00:23484new6403
2021-05-05 20:00:36N4KSCWopsTSingle OpHP:306,084new6403
2021-05-05 19:50:09W4ZGRCWopsTSingle OpHP1/2121new6403
 
2021-05-05 19:21:36AA0OCWopsTSingle OpLP196new6403
2021-05-05 18:34:17W2XYZCWopsTSingle OpHP11,935new6402
2021-05-05 14:37:56K4MM7QPSO(A)MixedLP20,444new6394
2021-05-05 14:12:48N4KWCWopsTSingle OpHP14,224new6402
2021-05-05 14:09:05N4KSCWopsTSingle OpHP:508,100new6402
2021-05-05 14:08:10K4BAICWopsTSingle OpHP122,801new6402
2021-05-05 14:06:11WJ9BCWopsTSingle OpLP17,553new6402
2021-05-05 14:03:08K2DMCWopsTSingle OpHP112,528new6402
2021-05-05 14:02:36N4GLCWopsTSingle OpLP11,406new6402
2021-05-05 14:02:26N4BPCWopsTSingle OpHP116,750new6402
 
2021-05-05 14:02:15W4SPRCWopsTSingle OpLP12,704new6402
2021-05-05 14:01:33K3SENCWopsTSingle OpHP17,921new6402
2021-05-05 14:00:29K4RUMCWopsTSingle OpHP110,593new6402
2021-05-05 13:56:57N4FPCWopsTSingle OpQRP.9900new6402
2021-05-05 13:46:59AA0OCWopsTSingle OpLP144new6402
2021-05-05 13:32:26W4WFCWopsTSingle OpLP00:32576new6402
2021-05-05 00:35:32NK4O7QPSOCWLP124new6394
2021-05-04 16:27:57KM4HIInQPSingle OpLP3:40195update6395
2021-05-04 13:52:41KM4HI7QPSO(A)MixedLP14.522,825update6394
2021-05-04 00:44:57WN8Y7QPSO(A)DigLP18new6394
 
2021-05-03 23:12:26KM4HINewEngQPSingle OpLP15.520,661new6397
2021-05-03 21:37:01N4UUNewEngQPSingle OpHP2350new6397
2021-05-03 20:55:51WO4ONewEngQPSingle OpHP4:0036,890new6397
2021-05-03 19:51:28K4QDNewEngQPSingle OpHP65,292new6397
2021-05-03 19:47:24K4QDInQPSingle OpHP18new6395
2021-05-03 19:43:17K4QD7QPSO(A)CWHP42,835new6394
2021-05-03 17:33:01W4THINewEngQPM/SHP12.56,804update6397
 (W4DJL,@W4THI)
2021-05-03 17:32:17W4THIInQPM/SHP12.5480update6395
 (W4DJL,@W4THI)
2021-05-03 17:31:23W4THI7QPM/SHP12.515,846update6394
 (W4DJL,@W4THI)
2021-05-03 16:32:04W4THIDeQPM/SHP12.5100new6396
 (W4DJL,@W4THI)
 
2021-05-03 15:11:47ND7K7QPM/MHP18562,626update6394
 (W4IX)
2021-05-03 14:11:54N0SMXCWopsTSingle OpLP36new6384
2021-05-03 13:47:47W4SPRInQPSingle OpLP18new6395
2021-05-03 13:44:45W4SPRNewEngQPSingle OpLP3.57,524new6397
2021-05-03 13:41:44W4SPRDeQPSingle OpLP1320new6396
2021-05-03 13:38:19W4SPR7QPSOCWLP2.54,284new6394
2021-05-03 13:22:46NX4NNewEngQPSingle OpHP2884new6397
2021-05-03 13:20:56NX4NInQPSingle OpHP0.318new6395
2021-05-03 13:19:15NX4N7QPSOCWHP21,134new6394
2021-05-03 12:00:41WN1GIV(@N4BP)InQPSingle OpHP1525new6395
 
2021-05-03 11:58:22WN1GIV(@N4BP)DeQPSingle OpHP1650new6396
2021-05-03 11:55:51WN1GIV(@N4BP)7QPSO(A)CWHP115,138new6394
2021-05-03 11:03:37K4RUMNewEngQPSingle OpHP23,024new6397
2021-05-03 11:02:20K4RUMInQPSingle OpHP.542new6395
2021-05-03 11:01:01K4RUMDeQPSingle OpHP.5160new6396
2021-05-03 11:00:12K4RUM7QPSO(A)CWHP11,152new6394
2021-05-03 10:03:53WN8YARISO RTTYLP61,386new6393
2021-05-03 06:31:36WJ9B7QPSOCWQRP1890,588new6394
2021-05-03 04:59:58NF4ANewEngQPSingle OpHP6:3021,489new6397
2021-05-03 03:31:19WN1GIV(@N4BP)NewEngQPSingle OpHP18.558,370new6397
 
2021-05-03 03:29:20W2XYZInQPSingle OpHP1.2456new6395
2021-05-03 03:27:03W2XYZNewEngQPSingle OpHP10.315,075new6397
2021-05-03 03:25:01W2XYZDeQPSingle OpHP0.4480new6396
2021-05-03 03:23:12W2XYZ7QPSO(A)MixedHP3.16,560new6394
2021-05-03 02:34:05K4NMR7QPSO(A)CWHP1:473,672new6394
2021-05-03 01:59:49N4GGNewEngQPSingle OpHP612,986new6397
2021-05-03 01:39:14K4BAINewEngQPSingle OpHP20,968new6397
2021-05-03 01:34:02K4BAIInQPSingle OpHP918new6395
2021-05-03 01:30:09K4BAIDeQPSingle OpHP1,200new6396
2021-05-03 01:25:33K4BAI7QPSOMixedHP56,936new6394
 
2021-05-03 01:03:58AA4TINewEngQPSingle OpHP1010,935new6397
2021-05-03 01:01:52W2XYZKRC SSTSingle OpLP11,300new6398
2021-05-03 01:01:01AA4TIInQPSingle OpHP148new6395
2021-05-03 00:56:26AA4TI7QPSO(A)MixedHP41,026new6394
2021-05-03 00:52:40AA4TIDeQPSingle OpHP4360new6396
2021-05-03 00:49:15NE8PInQPSingle OpHP0.9800new6395
2021-05-03 00:47:47NE8PNewEngQPSingle OpHP7.723,004new6397
2021-05-03 00:43:09NE8PDeQPSingle OpHP0.41,000new6396
2021-05-03 00:41:51NE8P7QPSO(A)CWHP6.539,825new6394
2021-05-03 00:30:05K8MRNewEngQPSingle OpLP79,432new6397
 
2021-05-03 00:20:18K8MRInQPSingle OpLP132new6395
2021-05-03 00:18:56K8MR7QPSOCWLP35,772new6394
2021-05-03 00:17:42K4EJNewEngQPSingle OpLP15.033,516new6397
2021-05-03 00:13:10K8MRDeQPSingle OpLP11,920new6396
2021-05-03 00:12:24KU8ENewEngQPSingle OpHP22,542new6397
2021-05-02 22:02:13K1XXFlQPMulti-Op MobileCWLP646,816new6375
 (@K1XX)
2021-05-02 20:39:20K4SBZARISO SSBHP2215new6393
2021-05-02 19:15:39KU8EARISO MixedHP16,023new6393
2021-05-02 19:12:21N4EEBARISO CWHP12287,844new6393
2021-05-02 17:17:17KU8EInQPSingle OpHP2,312update6395
 
2021-05-02 17:16:41KU8E7QPSOMixedHP53,508update6394
2021-05-02 16:02:32K4SBZInQPSingle OpHP36new6395
2021-05-02 15:57:27K4SBZNewEngQPSingle OpHP2154new6397
2021-05-02 15:54:26K4SBZDeQPSingle OpHP4160new6396
2021-05-02 15:50:40K4SBZ7QPSO(A)SSBHP82,574new6394
2021-05-02 13:08:53K4BAIARISO MixedHP6:253,048new6393
2021-05-02 12:29:51K4RUMARISO CWHP4.578,111new6393
2021-04-30 21:11:03K4BAIKRC SSTSingle OpHP12,646new6391
2021-04-30 21:06:14KS3KKRC SSTSingle OpLP1198new6391
2021-04-30 21:06:05W2XYZKRC SSTSingle OpHP1561new6391
 
2021-04-30 21:01:45K4RUMKRC SSTSingle OpHP1850new6391
2021-04-30 03:08:04K4BAINCCC SprintSingle OpLP0.51,160new6390
2021-04-30 03:05:33K8MRNCCC SprintSingle OpLP0.5875new6390
2021-04-30 03:04:36NK4ONCCC SprintSingle OpLP.581new6390
2021-04-29 22:49:10NK4OCWopsTSingle OpLP11,088new6386
2021-04-29 18:22:05K4LWCWopsTSingle OpLP@900new6386
2021-04-29 18:21:19K4LWCWopsTSingle OpLP1729new6385
2021-04-29 04:09:44K4BAICWopsTSingle OpHP0:5716,900new6386
2021-04-29 04:04:29N8KHCWopsTSingle OpHP15,929new6386
2021-04-29 04:03:21W4SPRCWopsTSingle OpLP14,284new6386
 
2021-04-29 04:03:00AA4NPCWopsTSingle OpLP14,615new6386
2021-04-29 04:02:22N4BPCWopsTSingle OpHP113,640new6386
2021-04-29 03:36:13N4FPCWopsTSingle OpLP.5900new6386
2021-04-29 03:29:05W4WFCWopsTSingle OpLP00:25625new6386
2021-04-29 03:20:05N4TO(@K1TO)FlQPSOABCWLP5100,548new6375
2021-04-29 03:17:38NX4N(@K1TO)FlQPSOABCWLP357,028new6375
2021-04-29 03:15:02NN4FL(@K1TO)FlQPSOABCWLP248,880new6375
2021-04-29 03:12:45K4KG(@K1TO)FlQPSOABCWLP256,604new6375
2021-04-29 03:10:13N4AO(@K1TO)FlQPSOABCWLP261,824new6375
2021-04-29 03:08:07N4KM(@K1TO)FlQPSOABCWLP271,744new6375
 
2021-04-29 03:03:09W4WF(@K1TO)FlQPSOABCWLP4106,128new6375
2021-04-28 22:00:49K8VACWopsTSingle OpLP.75650new6385
2021-04-28 21:47:00W4SPRCWopsTSingle OpLP13,465new6385
2021-04-28 20:39:17W4WFCWopsTSingle OpLP00:35900new6385
2021-04-28 20:17:58WJ9BCWopsTSingle OpLP112,100new6385
2021-04-28 20:08:30K4RUMCWopsTSingle OpHP110,504new6385
2021-04-28 20:06:28W2XYZCWopsTSingle OpHP11,260new6384
2021-04-28 20:04:46W2XYZCWopsTSingle OpHP12,304new6385
2021-04-28 20:03:50K5KGCWopsTSingle OpHP115,376new6385
2021-04-28 20:03:46N4BPCWopsTSingle OpHP129,929new6385
 
2021-04-28 20:02:27K5KGCWopsTSingle OpHP112,840new6384
2021-04-28 20:01:42K3SENCWopsTSingle OpHP16,084new6385
2021-04-28 19:53:26W4ZGRCWopsTSingle OpLP1/2100new6385
2021-04-28 19:44:40N4KSCWopsTSingle OpHP:4410,000new6385
2021-04-28 19:27:44N4FPCWopsTSingle OpLP.1100new6385
2021-04-28 19:23:40AA0OCWopsTSingle OpLP0.3169new6385
2021-04-28 19:18:13N4GLCWopsTSingle OpLP.25144new6385
2021-04-28 17:22:50K8MRFlQPSO MobileMixedLP191,152,450new6375
2021-04-28 15:35:17KB1PAFlQPSOABSSBLP1,056new6375
2021-04-28 14:12:23N4KWCWopsTSingle OpHP14,356new6384
 
2021-04-28 14:09:54W4SPRCWopsTSingle OpLP13,190new6384
2021-04-28 14:03:51K4RUMCWopsTSingle OpHP113,794new6384
2021-04-28 14:03:32K2DMCWopsTSingle OpHP114,500new6384
2021-04-28 14:02:58WJ9BCWopsTSingle OpLP15,320new6384
2021-04-28 14:02:35N4BPCWopsTSingle OpHP112,321new6384
2021-04-28 14:02:16K3SENCWopsTSingle OpHP16,084new6384
2021-04-28 14:02:02N4GLCWopsTSingle OpLP11,295new6384
2021-04-28 13:58:31N4FPCWopsTSingle OpQRP.7484new6384
2021-04-28 13:58:13AA0OCWopsTSingle OpLP0.5121new6384
2021-04-28 13:48:40W4WFCWopsTSingle OpLP00:371,156new6384
 
2021-04-27 18:56:03K4OJ/MFlQPMulti-Op MobileCWLP201,596,140new6375
 (N4KM,NX4N,K4OJ,K0LUZ)
2021-04-27 16:42:11W4ACFlQPM/MMixedLP20.0132,426update6375
 (K0AL,W2XYZ)
2021-04-27 10:54:28KE1FFlQPSOABMixedLP1432,352new6375
2021-04-27 03:34:21W4DASFlQPSOAB(A)SSBLP12:0028,152new6375
2021-04-26 22:14:34N4TPFlQPM/SMixedLP20712,356new6375
 (AE4AW,KI6RRN,KM4SQS,@N4TP)
2021-04-26 20:16:29KC4LZNFlQPSOAB(A)MixedLP323,100new6375
2021-04-26 20:11:08K4QDFlQPCnty ExpedLP20403,062new6375
2021-04-26 19:15:15K2DMFlQPSOABMixedHP5.594,208new6375
2021-04-26 18:17:39W4CUFlQPSOABCWHP152,082new6375
2021-04-26 18:16:55N4O(WO4O)FlQPSOAB(A)MixedHP17:30419,804new6375
 
2021-04-26 18:05:10NP2X(K9VV)FlQPSOAB(A)MixedHP1079,632new6375
2021-04-26 17:32:32K4SBZFlQPSOAB(A)SSBHP15.2571,757new6375
2021-04-26 17:29:14W4EEFlQPM/SMixedLP16291,900new6375
 (@W4EE)
2021-04-26 16:32:17KM4HIFlQPSOABMixedHP8:18137,516new6375
2021-04-26 16:21:05W4SPRFlQPSOABCWLP20290,672new6375
2021-04-26 15:06:54K8VA/4(@K8VA)FlQPSOABCWLP2.353,808new6375
2021-04-26 13:38:27N4EKFlQPSOABCWLP12208,772new6375
2021-04-26 13:33:52N3EAFlQPSOABCWLP1:201,260new6375
2021-04-26 13:14:41N3EAKRC SSTSingle OpLP1187new6380
2021-04-26 13:13:53W1BQFlQPSOAB(A)MixedHP15.091,964new6375
 
2021-04-26 13:12:05K4KKCFlQPSOABSSBHP84,075new6375
2021-04-26 11:30:30N4FCG(@N4BP)FlQPSOABCWHP20259,896new6375
2021-04-26 08:59:27W4FCG(@N4TB)FlQPSOABCWLP12.1262,480new6375
2021-04-26 04:08:21N8KHFlQPSOAB(A)CWLP14187,880update6375
2021-04-26 04:06:10N4GGFlQPSOAB(A)CWLP623,600update6375
2021-04-26 03:54:21K4LWFlQPSOABCWLP29,520update6375
2021-04-26 03:46:04NN4TTFlQPSOAB(A)SSBLP9:18119,544new6375
2021-04-26 02:52:36NN7CWFlQPSOABCWHP18:13162,216new6375
2021-04-26 02:51:08N6ARHelvetiaSO CWHP11,677new6373
2021-04-26 02:48:52N6ARFlQPSOABMixedHP10.6301,968new6375
 
2021-04-26 02:45:13W4AN/MFlQPMulti-Op MobileCWLP20672,060new6375
 (K4BAI,KU8E)
2021-04-26 02:25:41WN8YSPDX RTTYSOABLP66,528new6372
2021-04-26 02:20:16W2XYZFlQPSOAB(A)CWHP5.642,240new6375
2021-04-26 02:04:40N4AFlQPM/MMixedHP20639,234new6375
 (N4A,K4NMR,@K5KG)
2021-04-26 01:47:48N4DABFlQPM/MMixedLP1486,541new6375
 (KK4BFN,KB4T,WB4OMM,@N4DAB)
2021-04-26 01:44:55AA4TIFlQPCnty ExpedLP20714,800new6375
2021-04-26 01:26:37N4FPFlQPMulti-Op MobileCWLP20507,780new6375
 (N4FP,K2PS)
2021-04-26 01:04:08W4LTFlQPSOABMixedHP7147,900new6375
2021-04-26 00:30:18K4EUFlQPSOABCWHP1297,512new6375
2021-04-26 00:25:11WN8YFlQPSOABSSBLP1144new6375
 
2021-04-26 00:21:17KW4GFlQPSOABSSBLP2648new6375
2021-04-26 00:17:04AD4ESFlQPM/SMixedLP19:54565,062new6375
 (W4SO,@AD4ES)
2021-04-25 23:51:54AA4NPFlQPSOAB(A)CWLP11165,648new6375
2021-04-25 23:15:38K4EJFlQPSOABMixedLP17.0210,296new6375
2021-04-25 22:58:13NK4OFlQPSOABMixedLP20161,124new6375
2021-04-25 22:49:56KQ4RFlQPSOABCWLP17285,420new6375
2021-04-25 22:48:00K7JAFlQPSOABCWLP7.0033,280new6375
2021-04-25 22:47:03N4KSFlQPSOABCWHP17178,340new6375
2021-04-25 22:44:58N0SMXFlQPSOAB(A)CWHP360new6375
2021-04-25 22:43:14W4MLBFlQPM/MMixedLP20591,852new6375
 (AF4Z,K9ES,@W4MLB)
 
2021-04-25 22:43:10N1TOFlQPSOABCWHP12146,300new6375
2021-04-25 22:42:24WB4TDHFlQPSOABCWLP12230,100new6375
2021-04-25 22:37:09K4SXTFlQPSOABCWLP17213,000new6375
2021-04-25 22:34:24KO4PKFlQPM/SSSBLP9:154,864new6375
 (KO4NGN,@KO4PK)
2021-04-25 22:26:16N4SFlQPM/MMixedHP19.5656,477new6375
 (N4S,W4WF,@N4WW)
2021-04-25 22:23:46KT4QFlQPSOAB(A)MixedHP1330,492new6375
2021-04-25 22:22:47K4ILGFlQPSOABSSBLP7,056new6375
2021-04-25 22:18:51WJ9BFlQPSOABCWQRP1658,410new6375
2021-04-25 22:18:32K4RUMHelvetiaSO MixedHP34,825new6373
2021-04-25 22:15:30K2WLSFlQPSOABSSBLP20192,924new6375
 
2021-04-25 22:15:10N4HFlQPM/MMixedHP20751,500new6375
 (K1MM,N4H,@N4UU)
2021-04-25 22:08:27AA0OFlQPSOABCWLP437,720new6375
2021-04-25 22:02:06K4RUMFlQPSOAB(A)CWHP1641,272new6375
2021-04-25 20:35:02W3TBFlQPSOABCWLP4:3817,004new6375
2021-04-25 01:53:50K4NMRFlQPSOABCWHP4:0651,840new6375
2021-04-25 00:38:50AA8R/4(@AA8R)FlQPSOABCWHP4.522,848new6375
2021-04-24 17:47:29K8VAKRC SSTSingle OpLP.5084update6371
2021-04-24 17:46:42K4SBZMiQPSingle OpHP3238update6357
2021-04-24 00:18:36K4BAIKRC SSTSingle OpLP1520new6371
2021-04-23 21:16:55K4SBZOnQPSO SSBHP3602new5642
 
2021-04-23 21:00:20K4RUMKRC SSTSingle OpHP11,100new6371
2021-04-23 21:00:19W2XYZKRC SSTSingle OpLP1312new6371
2021-04-23 03:04:04K8MRNCCC SprintSingle OpLP0.51,645new6370
2021-04-23 03:03:22NK4ONCCC SprintSingle OpLP.5165new6370
2021-04-23 00:33:45AA4TIOnQPSO MixedHP1.5260new5642
2021-04-23 00:23:08AA4TIMiQPSingle OpHP1.5180new6357
2021-04-22 16:00:09W2XYZCWopsTSingle OpHP.6961update6364
2021-04-22 15:58:24KU8ECWopsTSingle OpHP120,385update6366
2021-04-22 04:11:07N4FP/M(N4FP)CWopsTSingle OpLP1625new6366
2021-04-22 04:09:38K4BAICWopsTSingle OpHP117,568new6366
 
2021-04-22 04:07:30WJ9BCWopsTSingle OpLPID12,852new6366
2021-04-22 04:05:06W4SPRCWopsTSingle OpLP15,925new6366
2021-04-22 04:04:24K4NMRCWopsTSingle OpHP114,400new6366
2021-04-22 04:04:17N4FCG(@N4BP)CWopsTSingle OpHP119,321new6366
2021-04-22 04:04:11K5KGCWopsTSingle OpHP113,800new6366
2021-04-22 04:04:01W4WF(@N4WW)CWopsTSingle OpHP119,388new6366
2021-04-22 04:03:50AA4NPCWopsTSingle OpLP14,480new6366
2021-04-22 04:02:08NK4OCWopsTSingle OpLP11,560new6366
2021-04-22 03:29:05AA0OCWopsTSingle OpLP0.5100new6366
2021-04-22 03:28:45N4KSCWopsTSingle OpHP:252,500new6366
 
2021-04-22 00:53:31K5KGCWopsTSingle OpHP113,452new6365
2021-04-21 22:21:16N4FP/M(N4FP)CWopsTSingle OpLP1756new6365
2021-04-21 20:27:05N4TBCWopsTSingle OpLP0.54,624new6365
2021-04-21 20:14:48N4FCG(@N4BP)CWopsTSingle OpHP122,500new6365
2021-04-21 20:05:14NK4OCWopsTSingle OpLP.25256new6365
2021-04-21 20:05:11W4WFCWopsTSingle OpLP00:401,225new6365
2021-04-21 20:04:35W2XYZCWopsTSingle OpHP11,296new6365
2021-04-21 20:04:21W4SPRCWopsTSingle OpLP13,538new6365
2021-04-21 20:03:16K4EUCWopsTSingle OpHP13,364new6365
2021-04-21 20:02:58WJ9BCWopsTSingle OpLP111,556new6365
 
2021-04-21 20:02:29AA4NPCWopsTSingle OpLP11,330new6365
2021-04-21 20:01:57K3SENCWopsTSingle OpHP4,624new6365
2021-04-21 20:00:25K4RUMCWopsTSingle OpHP19,310new6365
2021-04-21 19:40:51N4KSCWopsTSingle OpHP:4010,000new6365
2021-04-21 19:36:12AA0OCWopsTSingle OpLP0.5756new6365
2021-04-21 19:33:16W4FCG(@NX4N)CWopsTSingle OpHP1272new6365
2021-04-21 19:32:57N4TBCWopsTSingle OpLP0.54,624new6346
2021-04-21 19:32:02AA8RCWopsTSingle OpHP.5529new6365
2021-04-21 16:20:49K2DMCWopsTSingle OpHP117,097new6364
2021-04-21 15:03:14WJ9BCWopsTSingle OpLP17,290new6364
 
2021-04-21 14:20:41N4FP/M(@N4FP)CWopsTSingle OpLP.7462new6364
2021-04-21 14:15:40K4BAICWopsTSingle OpHP127,225new6364
2021-04-21 14:12:42N4KWCWopsTSingle OpHP12,968new6364
2021-04-21 14:09:37KQ4RCWopsTSingle OpHP16,241new6364
2021-04-21 14:07:47K4RUMCWopsTSingle OpHP110,400new6364
2021-04-21 14:06:11K4EUCWopsTSingle OpHP11,444new6364
2021-04-21 14:04:47W4YY(@W4RN)CWopsTSingle OpHP16,075new6364
2021-04-21 14:03:32W4SPRCWopsTSingle OpLP13,540new6364
2021-04-21 14:02:54N4GLCWopsTSingle OpLP11,848new6364
2021-04-21 14:02:49N4FCG(@N4BP)CWopsTSingle OpHP113,298new6364
 
2021-04-21 14:02:13N4KSCWopsTSingle OpHP115,860new6364
2021-04-21 14:01:45K3SENCWopsTSingle OpHP15,041new6364
2021-04-21 13:58:33NK4OCWopsTSingle OpLP.25289new6364
2021-04-21 13:56:25W4WFCWopsTSingle OpLP00:451,296new6364
2021-04-21 13:39:07K4OJ(@NX4N)CWopsTSingle OpHP2,304new6364
2021-04-21 13:36:22AA8RCWopsTSingle OpHP.5576new6364
2021-04-21 13:33:37N4TBCWopsTSingle OpLP0.51,260new6364
2021-04-21 13:24:23AA0OCWopsTSingle OpLP0.3144new6364
2021-04-19 23:31:25N6ARCQMM DXSOABHP.1.121,762new6356
2021-04-19 22:28:32K4QDGaQPSingle OpCWLP4720new6336
 
2021-04-19 20:59:56WK2GCQMM DXSOABHP1092,248new6356
2021-04-19 20:51:01WO4OCQMM DXSOABHP2:3036,162new6356
2021-04-19 20:12:40K4LWCQMM DXSOABLP1.5413new6356
2021-04-19 14:24:17N4FPOnQPSO MixedLP1400update5642
2021-04-19 13:50:12N4FPCQMM DXSOABLP21,488new6356
2021-04-19 03:42:05KU8EOnQPSO MixedHP57,298new5642
2021-04-19 03:27:59KU8ECQMM DXSOABHP12:53161,701new6356
2021-04-19 03:00:54N4BPCQMM DXSOABHP26.31,305,258new6356
2021-04-19 02:54:35K4BAIOnQPSO MixedHP5:3011,336new5642
2021-04-19 02:44:13W2XYZOnQPSO CWHP3700new5642
 
2021-04-19 02:38:14K4BAIMiQPSingle OpHP5:434,995new6357
2021-04-19 02:21:28K4BAIHolyland DXSO MixedHP0:2945new6352
2021-04-19 02:17:43W2XYZHolyland DXSO CWHP1.532new6352
2021-04-19 02:12:05W2XYZCQMM DXSOABHP12.762,433new6356
2021-04-19 02:05:48K4BAICQMM DXSOABHP17:58249,750new6356
2021-04-19 02:00:55W2XYZKRC SSTSingle OpLP1984new6358
2021-04-19 01:49:09K4BAIYU DXSO CWHP1:11484new6355
2021-04-19 01:36:55KE1FCQMM DXSOABLP10:4710,634new6356
2021-04-19 01:28:37KM4HIOnQPSO MixedLP6:5610,900new5642
2021-04-19 01:21:01K4BAIKRC SSTSingle OpHP13,080new6358
 
2021-04-19 01:03:24N3EAKRC SSTSingle OpLP1420new6358
2021-04-19 00:46:08K4RUMKRC SSTSingle OpHP.25108new6358
2021-04-19 00:29:15K2PSCQMM DXSOABHP8.562,880new6356
2021-04-19 00:12:11NK4OCQMM DXSOABLP9.7588,116new6356
2021-04-19 00:10:26W3TBMiQPSingle OpHP1:151,178new6357
2021-04-19 00:10:11K4RUMOnQPSO CWHP.751,672new5642
2021-04-19 00:07:39W3TBOnQPSO CWHP1:052,064new5642
2021-04-19 00:06:41AA4NPCQMM DXSOABLP965,024new6356
2021-04-19 00:01:06K4RUMCQMM DXSOABHP13245,740new6356
2021-04-18 22:29:50N0SMXCQMM DXSOABLP6,588new6356
 
2021-04-18 22:00:13K4NMRCQMM DXSOABHP:54826new6356
2021-04-18 21:50:15K4NMROnQPSO CWHP1:364,608new5642
2021-04-18 20:42:24K8MROnQPSO MixedLP21,584new5642
2021-04-18 19:33:30K8VACQMM DXSOABLP1.5162new6356
2021-04-18 18:27:26WB4OMMOnQPSO CWQRP266new5642
2021-04-18 18:23:44WB4OMMMiQPSingle OpQRP118new6357
2021-04-18 18:19:20WB4OMMCQMM DXSOABQRP2392new6356
2021-04-18 18:08:59NE8POnQPSO MixedHP5.57,954new5642
2021-04-18 18:07:42K5KGOnQPSO MixedHP7:2330,560new5642
2021-04-18 13:13:48NE8PMiQPSingle OpHP4.53,069new6357
 
2021-04-18 13:02:07AA8RCQMM DXSOABHP419,200new6356
2021-04-18 12:50:45K4RUMYU DXSO CWHP1.251,600new6355
2021-04-18 12:44:04K4RUMHolyland DXSO MixedHP1.5242new6352
2021-04-18 12:12:59K4RUMMiQPSingle OpHP.5176new6357
2021-04-18 11:51:26K8MRMiQPSingle OpLP42,484new6357
2021-04-18 11:24:58W4THIHolyland DXSO MixedHP1.560new6352
2021-04-18 04:20:29KU8EMiQPSingle OpHP45,586new6357
2021-04-18 04:05:40W4SPRMiQPSingle OpLP3.5784new6357
2021-04-18 01:55:35NX4NMiQPSingle OpHP0.372new6357
2021-04-18 01:53:04NX4NOnQPSO CWHP164new5642
 
2021-04-16 21:22:56K4BAIKRC SSTSingle OpHP13,358new6351
2021-04-16 21:04:54W2XYZKRC SSTSingle OpLP11,410new6351
2021-04-16 21:01:20K4RUMKRC SSTSingle OpHP12,016new6351
2021-04-16 20:59:44NK4OKRC SSTSingle OpLP1256new6351
2021-04-16 20:31:14AA8RKRC SSTSingle OpHP630new6351
2021-04-16 15:58:09W4AN/M(K4BAI,KU8E)GaQPRover M/SLP20245,514update6336
2021-04-16 03:13:54K4BAINCCC SprintSingle OpLP0.51,189new6350
2021-04-16 03:03:50NK4ONCCC SprintSingle OpLP.5156new6350
2021-04-16 03:02:40WJ9BNCCC SprintSingle OpLP.51,472new6350
2021-04-16 03:02:38K8MRNCCC SprintSingle OpLP0.51,140new6350
 
2021-04-16 03:02:34W4WFNCCC SprintSingle OpLP0.5450new6350
2021-04-15 17:32:49K4LWCWopsTSingle OpLP961new6346
2021-04-15 04:09:25K4BAICWopsTSingle OpHP123,200new6347
2021-04-15 04:08:36N4FPCWopsTSingle OpHP5,929new6346
2021-04-15 04:08:35WJ9BCWopsTSingle OpLP115,210new6347
2021-04-15 04:04:31W4WFCWopsTSingle OpLP14,896new6347
2021-04-15 04:03:55AA4NPCWopsTSingle OpLP17,565new6347
2021-04-15 04:03:38N4FPCWopsTSingle OpLP16,230new6347
2021-04-15 04:03:36NK4OCWopsTSingle OpLP12,448new6347
2021-04-15 04:03:16W4SPRCWopsTSingle OpLP16,800new6347
 
2021-04-15 04:02:50K4NMRCWopsTSingle OpHP112,544new6347
2021-04-15 04:02:18N4BPCWopsTSingle OpHP119,536new6347
2021-04-15 03:27:29AA0OCWopsTSingle OpLP144new6347
2021-04-14 21:04:20K8VACWopsTSingle OpLP11,295new6346
2021-04-14 20:39:40W2XYZCWopsTSingle OpHP12,756update6345
2021-04-14 20:11:23N4BPCWopsTSingle OpHP127,225new6346
2021-04-14 20:11:22N4KWCWopsTSingle OpHP:451,089new6346
2021-04-14 20:06:47K4RUMCWopsTSingle OpHP111,660new6346
2021-04-14 20:03:55K4NMRCWopsTSingle OpLP:30841new6346
2021-04-14 20:03:00W4WFCWopsTSingle OpLP13,721new6346
 
2021-04-14 20:02:56W4SPRCWopsTSingle OpLP14,347new6346
2021-04-14 20:02:39K4EUCWopsTSingle OpHP14,356new6346
2021-04-14 20:02:29NK4OCWopsTSingle OpLP12,450new6346
2021-04-14 20:01:49W2XYZCWopsTSingle OpHP13,192new6346
2021-04-14 20:01:45K3SENCWopsTSingle OpHP17,225new6346
2021-04-14 19:49:44W3TBCWopsTSingle OpHP0:30625new6346
2021-04-14 19:39:32AA8RCWopsTSingle OpHP400new6346
2021-04-14 19:39:03AA0OCWopsTSingle OpLP144new6346
2021-04-14 19:19:31N4GLCWopsTSingle OpLP.25196new6346
2021-04-14 14:32:44N4KWCWopsTSingle OpHP15,025new6345
 
2021-04-14 14:17:34K4RUMCWopsTSingle OpHP18,556new6345
2021-04-14 14:14:33WJ9BCWopsTSingle OpLP17,055new6345
2021-04-14 14:13:33W4SPRCWopsTSingle OpLP12,916new6345
2021-04-14 14:10:20K4EUCWopsTSingle OpHP:451,295new6345
2021-04-14 14:10:08AA0OCWopsTSingle OpLP0.5100new6345
2021-04-14 14:10:00N4BPCWopsTSingle OpHP119,881new6345
2021-04-14 14:09:07K4BAICWopsTSingle OpHP123,409new6345
2021-04-14 14:07:14K2DMCWopsTSingle OpHP111,872new6345
2021-04-14 14:06:09NK4OCWopsTSingle OpLP11,482new6345
2021-04-14 14:05:52W4WFCWopsTSingle OpLP12,116new6345
 
2021-04-14 14:01:51N4GLCWopsTSingle OpLP12,601new6345
2021-04-14 14:01:28K3SENCWopsTSingle OpHP14,356new6345
2021-04-14 13:33:13AA8RCWopsTSingle OpHP529new6345
2021-04-14 13:13:26N4FPCWopsTSingle OpHP.1100new6345
2021-04-14 02:36:05WB4OMMFTn DXSingle OpLP412,540new6333
2021-04-14 00:46:49W4SPRNeQPOut of StateLP2396update6334
2021-04-14 00:14:38WB4OMMNeQPOut of StateQRP11new6334
2021-04-14 00:12:40WB4OMMNMQPSingle OpQRP172new6335
2021-04-14 00:06:15WB4OMMGaQPSingle OpMixedLP31,566new6336
2021-04-13 14:19:39K4BAIOK/OM DX SSBSOSB/20HP0:0110new6332
 
2021-04-12 20:39:44K4SBZGaQPSingle OpSSBHP4943new6336
2021-04-12 20:23:38K4SBZNeQPOut of StateHP6410new6334
2021-04-12 18:51:52W4SPRNDQPFixedLP11new6337
2021-04-12 18:50:33W4SPRNMQPSingle OpLP190new6335
2021-04-12 18:45:42W4SPRGaQPSingle OpMixedLP22,697new6336
2021-04-12 18:08:01K4SBZNDQPOut of StateHP4143new6337
2021-04-12 17:04:27WN8YIG-RY RTTYSingle OpLP6840new6340
2021-04-12 15:37:56KM4HIGaQPSingle OpMixedLP13:5331,565new6336
2021-04-12 14:57:00KT4QGaQPSingle OpMixedLP922,944new6336
2021-04-12 14:22:10NE8PGaQPSingle OpMixedHP2.03,480new6336
 
2021-04-12 14:20:21NE8PNMQPSingle OpHP1.0242new6335
2021-04-12 14:18:54NE8PNeQPOut of StateHP1.018new6334
2021-04-12 14:01:07K4BAINMQPSingle OpHP0:58198new6335
2021-04-12 13:46:39K4BAINeQPFixedHP0:5280new6334
2021-04-12 13:35:04NX4NGaQPSingle OpCWHP1599new6336
2021-04-12 04:07:41W2XYZGaQPSingle OpMixedHP6.59,000new6336
2021-04-12 03:35:20AA4TIGaQPSingle OpMixedHP1221,242new6336
2021-04-12 03:29:45AA4TINDQPOut of StateHP6180new6337
2021-04-12 03:24:21AA4TINMQPSingle OpHP6390new6335
2021-04-12 03:18:37AA4TINeQPFixedHP6940new6334
 
2021-04-12 02:54:34N6ARIG-RY RTTYSingle OpHP39,576new6340
2021-04-12 02:19:58N6AROK/OM DX SSBSOABHP1588new6332
2021-04-12 02:16:43N4BPGaQPSingle OpCWHP12.526,228new6336
2021-04-12 02:09:58N6ARNMQPSingle OpHP51,600new6335
2021-04-12 02:06:41N6ARNDQPOut of StateHP4.75936new6337
2021-04-12 02:01:57N6ARNeQPOut of StateHP5.752,030new6334
2021-04-12 01:49:34N6ARGaQPSingle OpMixedHP823,392new6336
2021-04-12 01:46:02N4FPGaQPRover Single OpLP1154,450new6336
2021-04-12 00:29:09W4EEGaQPSingle OpMixedLP65,125new6336
2021-04-12 00:05:29K8MRGaQPSingle OpCWLP1608new6336
 
2021-04-11 23:30:14K4RUMGaQPSingle OpMixedHP4.56,210new6336
2021-04-11 22:48:15AA8RGaQPSingle OpCWHP1.5900new6336
2021-04-11 22:41:46NK4OGaQPSingle OpMixedLP6.517,230new6336
2021-04-11 22:29:57K4SBZNMQPSingle OpHP696new6335
2021-04-11 22:27:46N4UUGaQPSingle OpMixedHP2646new6336
2021-04-11 22:21:33W4ZGRGaQPSingle OpCWHP2,117new6336
2021-04-11 22:13:23K4SBZOK/OM DX SSBSOABHP4168new6332
2021-04-11 21:32:58K4RUMNeQPOut of StateHP1.5360new6334
2021-04-11 21:16:32K4RUMNDQPOut of StateHP149new6337
2021-04-11 21:08:23K4RUMGagarin DXSOABHP6.539,618new6338
 
2021-04-11 21:06:04NP2X(K9VV)Gagarin DXSOABHP7.5186,312new6338
2021-04-11 20:46:41NK4ONeQPFixedLP114new6334
2021-04-11 20:42:19N4BPGagarin DXSOABHP992,278new6338
2021-04-11 20:33:22NK4OOK/OM DX SSBSOABLP11,488new6332
2021-04-11 19:02:09W3IKFTn DXSingle OpLP1255new6333
2021-04-11 19:01:45KE1FIG-RY RTTYSingle OpLP3:00598new6340
2021-04-11 17:57:44W3IKIG-RY RTTYSingle OpHP1.25238new6340
2021-04-11 17:15:42W4EEFTn DXSingle OpLP8.510,374new6333
2021-04-11 16:52:25WJ9BJIDX CWSOSB/40HP1520,295new6331
2021-04-11 13:52:22AA8RIG-RY RTTYSingle OpHP410,692new6340
 
2021-04-11 12:06:58K9OMFTn DXSingle OpLP10:1532,148new6333
2021-04-11 11:46:17K4RUMOK/OM DX SSBSOSB/20HP12,080new6332
2021-04-11 11:23:08K4RUMNMQPSingle OpHP1180new6335
2021-04-10 01:09:29KE1FEA RTTYSOABLP1:50324new6317
2021-04-09 21:07:22K4BAIKRC SSTSingle OpHP11,440new6330
2021-04-09 21:02:58W5GJKRC SSTSingle OpLP1143new6330
2021-04-09 21:00:59K4RUMKRC SSTSingle OpHP11,064new6330
2021-04-09 15:53:13KU8ENCCC SprintSingle OpLP:301,254update6329
2021-04-09 03:11:52K4BAINCCC SprintSingle OpLP0.51,140new6329
2021-04-09 03:09:09WJ9BNCCC SprintSingle OpLP11,386new6329
 
2021-04-09 03:04:03NK4ONCCC SprintSingle OpLP.5380new6329
2021-04-09 03:02:57K8MRNCCC SprintSingle OpLP0.51,312new